Pagrindinis puslapis
METAR-TAF:

METAR-TAF

Oro uostai :

Jask, Iranas

platuma: 26-38N, ilguma: 057-46E, Aukštis: 3 m

Dabartinis oras

Ataskaita buvo paskelbta 36 minutes, ne 06:00 UTC
Vėjas 4 kt iš Šiaurės Vakarų
Temperatūra 35°C
Drėgmė 37%
Slėgis 999 hPa
Matomumas: 8000 m

METAR: OIZJ 240600Z 31004KT 8000 NSC 35/18 Q0999

Laikas: 11:06 (06:36 UTC)


TAF: trūkstamas

Orai ataskaitas ir orų prognozės (METAR, TAF).

turimą stotys yra geltonos ir raudonos taškus žemėlapyje.

Perkelti pele per norėdami pamatyti stoties vardą.

Tada spustelėkite, norėdami matyti oro stebėjimo ir prognozės.

Norėdami pakeisti žemėlapį: spustelėkite ant žalios mygtukų su juodo kryžiaus žemyn,; žalią mygtuką su brūkšneliu, jei norite nutolinti; arba žalių rodyklių gretimoms žemėlapius.


METAR-TAF: